TimeCDT,TemperatureF,Dew PointF,Humidity,Sea Level PressureIn,VisibilityMPH,Wind Direction,Wind SpeedMPH,Gust SpeedMPH,PrecipitationIn,Events,Conditions,WindDirDegrees,DateUTC
12:56 AM,55.9,54.0,93,30.07,10.0,NW,3.5,-,N/A,,Partly Cloudy,320,2013-06-18 05:56:00
1:56 AM,54.0,53.1,97,30.06,10.0,Calm,Calm,-,N/A,,Clear,0,2013-06-18 06:56:00
2:56 AM,53.1,52.0,96,30.06,10.0,Calm,Calm,-,N/A,,Clear,0,2013-06-18 07:56:00
3:56 AM,50.0,50.0,100,30.08,9.0,NW,4.6,-,N/A,,Clear,310,2013-06-18 08:56:00
4:06 AM,50.0,50.0,100,30.07,1.2,NW,3.5,-,N/A,,Clear,310,2013-06-18 09:06:00
4:15 AM,50.0,50.0,100,30.08,0.5,WNW,3.5,-,N/A,Fog,Fog,290,2013-06-18 09:15:00
4:22 AM,50.0,50.0,100,30.07,2.0,Calm,Calm,-,N/A,,Clear,0,2013-06-18 09:22:00
4:29 AM,51.8,50.0,94,30.08,8.0,Calm,Calm,-,N/A,,Clear,0,2013-06-18 09:29:00
4:56 AM,51.1,50.0,96,30.08,8.0,NW,3.5,-,N/A,,Clear,310,2013-06-18 09:56:00
5:56 AM,52.0,51.1,97,30.09,10.0,Calm,Calm,-,N/A,,Clear,0,2013-06-18 10:56:00
6:56 AM,55.9,54.0,93,30.10,10.0,Calm,Calm,-,0.01,,Clear,0,2013-06-18 11:56:00
7:56 AM,61.0,57.0,87,30.09,10.0,ENE,3.5,-,N/A,,Clear,70,2013-06-18 12:56:00
8:56 AM,64.0,57.0,78,30.11,10.0,Calm,Calm,-,N/A,,Clear,0,2013-06-18 13:56:00
9:56 AM,66.9,55.9,68,30.09,10.0,SSW,4.6,-,N/A,,Clear,200,2013-06-18 14:56:00
10:56 AM,70.0,55.0,59,30.07,10.0,Calm,Calm,-,N/A,,Clear,0,2013-06-18 15:56:00
11:56 AM,73.0,53.1,49,30.06,10.0,Variable,3.5,-,N/A,,Partly Cloudy,0,2013-06-18 16:56:00
12:56 PM,73.9,54.0,50,30.05,10.0,Variable,4.6,-,N/A,,Clear,0,2013-06-18 17:56:00
1:56 PM,75.9,54.0,46,30.03,10.0,Calm,Calm,-,N/A,,Partly Cloudy,0,2013-06-18 18:56:00
2:56 PM,78.1,53.1,42,30.01,10.0,Variable,3.5,-,N/A,,Clear,0,2013-06-18 19:56:00
3:56 PM,75.9,51.1,42,30.01,10.0,Calm,Calm,-,N/A,,Scattered Clouds,0,2013-06-18 20:56:00
4:56 PM,77.0,52.0,42,29.99,10.0,South,3.5,-,N/A,,Clear,180,2013-06-18 21:56:00
5:56 PM,79.0,52.0,39,29.96,10.0,Variable,4.6,-,N/A,,Partly Cloudy,0,2013-06-18 22:56:00
6:56 PM,75.9,51.1,42,29.94,10.0,Calm,Calm,-,N/A,,Clear,0,2013-06-18 23:56:00
7:53 PM,77.0,53.6,44,29.94,10.0,South,4.6,-,N/A,,Partly Cloudy,180,2013-06-19 00:53:00
7:56 PM,77.0,52.0,42,29.93,10.0,South,4.6,-,N/A,,Partly Cloudy,180,2013-06-19 00:56:00
8:56 PM,73.0,54.0,51,29.94,10.0,SSW,3.5,-,N/A,,Clear,200,2013-06-19 01:56:00
9:56 PM,68.0,54.0,61,29.94,10.0,South,3.5,-,N/A,,Partly Cloudy,190,2013-06-19 02:56:00
10:56 PM,63.0,54.0,72,29.94,10.0,SE,3.5,-,N/A,,Clear,130,2013-06-19 03:56:00
11:56 PM,62.1,53.1,72,29.94,10.0,Calm,Calm,-,N/A,,Clear,0,2013-06-19 04:56:00